,,Stat6,,Stat2,,Stat8,,Stat9,,Stat10,,Wind1,,Wind1,
time,status,PA1M_AVG,status,PR1M_SUM,status,RH1M_AVG,status,SR1M_AVG,status,TA1M_AVG,status,W1dAve1m,status,W1sAve1m,
2005-01-08, 00:00:00,VALID,918.688,VALID,0,VALID,100,VALID,-0.0339617,VALID,19.5201,VALID,134,VALID,1.19586,
2005-01-08, 00:01:00,VALID,918.682,VALID,0,VALID,100,VALID,-0.0339617,VALID,19.5238,VALID,138,VALID,1.35847,
2005-01-08, 00:02:00,VALID,918.683,VALID,0,VALID,100,VALID,-0.0679233,VALID,19.5134,VALID,135,VALID,1.02344,
2005-01-08, 00:03:00,VALID,918.671,VALID,0,VALID,100,VALID,-0.0339617,VALID,19.5136,VALID,134,VALID,0.987351,
2005-01-08, 00:04:00,VALID,918.669,VALID,0,VALID,100,VALID,0.0169808,VALID,19.5256,VALID,133,VALID,1.19478,
2005-01-08, 00:05:00,VALID,918.657,VALID,0,VALID,100,VALID,0.0339617,VALID,19.5191,VALID,143,VALID,1.13542,
2005-01-08, 00:06:00,VALID,918.662,VALID,0,VALID,100,VALID,0.0679233,VALID,19.5219,VALID,127,VALID,1.09535,
2005-01-08, 00:07:00,VALID,918.653,VALID,0,VALID,100,VALID,0.0509425,VALID,19.5156,VALID,131,VALID,0.885174,
2005-01-08, 00:08:00,VALID,918.645,VALID,0,VALID,100,VALID,0.0849042,VALID,19.5258,VALID,130,VALID,0.710258,
2005-01-08, 00:09:00,VALID,918.645,VALID,0,VALID,100,VALID,0.0679233,VALID,19.5194,VALID,113,VALID,0.718555,
2005-01-08, 00:10:00,VALID,918.627,VALID,0,VALID,100,VALID,0.0509425,VALID,19.5127,VALID,121,VALID,0.614347,
2005-01-08, 00:11:00,VALID,918.631,VALID,0,VALID,100,VALID,0.0849042,VALID,19.5025,VALID,111,VALID,0.950149,
2005-01-08, 00:12:00,VALID,918.606,VALID,0,VALID,100,VALID,0.0509425,VALID,19.5161,VALID,127,VALID,1.10917,
2005-01-08, 00:13:00,VALID,918.587,VALID,0,VALID,100,VALID,0.0679233,VALID,19.5027,VALID,140,VALID,1.26599,
2005-01-08, 00:14:00,VALID,918.572,VALID,0,VALID,100,VALID,0.101885,VALID,19.503,VALID,138,VALID,1.09152,
2005-01-08, 00:15:00,VALID,918.539,VALID,0,VALID,100,VALID,0.0849042,VALID,19.4997,VALID,136,VALID,0.871982,
2005-01-08, 00:16:00,VALID,918.527,VALID,0,VALID,100,VALID,0.0679233,VALID,19.4898,VALID,135,VALID,1.0127,
2005-01-08, 00:17:00,VALID,918.505,VALID,0,VALID,100,VALID,0.0339617,VALID,19.4833,VALID,126,VALID,0.679501,
2005-01-08, 00:18:00,VALID,918.489,VALID,0,VALID,100,VALID,0.0679233,VALID,19.4737,VALID,128,VALID,1.06957,
2005-01-08, 00:19:00,VALID,918.471,VALID,0,VALID,100,VALID,0.0169808,VALID,19.4784,VALID,134,VALID,0.882267,
2005-01-08, 00:20:00,VALID,918.455,VALID,0,VALID,100,VALID,-0.0169808,VALID,19.4654,VALID,133,VALID,0.964844,
2005-01-08, 00:21:00,VALID,918.442,VALID,0,VALID,100,VALID,-0.0169808,VALID,19.4652,VALID,145,VALID,0.895774,
2005-01-08, 00:22:00,VALID,918.437,VALID,0,VALID,100,VALID,-0.0339617,VALID,19.459,VALID,142,VALID,1.0238,
2005-01-08, 00:23:00,VALID,918.427,VALID,0,VALID,100,VALID,-0.0169808,VALID,19.4592,VALID,139,VALID,0.77168,
2005-01-08, 00:24:00,VALID,918.429,VALID,0,VALID,100,VALID,-0.0169808,VALID,19.449,VALID,144,VALID,0.700521,
2005-01-08, 00:25:00,VALID,918.42,VALID,0,VALID,100,VALID,-0.0339617,VALID,19.4627,VALID,119,VALID,0.78457,
2005-01-08, 00:26:00,VALID,918.434,VALID,0,VALID,100,VALID,-0.0339617,VALID,19.4528,VALID,141,VALID,0.869913,
2005-01-08, 00:27:00,VALID,918.436,VALID,0,VALID,100,VALID,-0.0169808,VALID,19.4493,VALID,148,VALID,0.503997,
2005-01-08, 00:28:00,VALID,918.436,VALID,0,VALID,100,VALID,-0.0169808,VALID,19.4324,VALID,142,VALID,0.354861,
2005-01-08, 00:29:00,VALID,918.429,VALID,0,VALID,100,VALID,-0.0169808,VALID,19.4366,VALID,143,VALID,0.575763,
2005-01-08, 00:30:00,VALID,918.423,VALID,0,VALID,100,VALID,-0.0339617,VALID,19.4267,VALID,125,VALID,0.572443,
2005-01-08, 00:31:00,VALID,918.414,VALID,0,VALID,100,VALID,-0.0509425,VALID,19.4336,VALID,128,VALID,0.313988,
2005-01-08, 00:32:00,VALID,918.405,VALID,0,VALID,100,VALID,-0.0339617,VALID,19.4297,VALID,131,VALID,0.403525,
2005-01-08, 00:33:00,VALID,918.398,VALID,0,VALID,100,VALID,-0.0339617,VALID,19.4401,VALID,141,VALID,0.548611,
2005-01-08, 00:34:00,VALID,918.38,VALID,0,VALID,100,VALID,0.0509425,VALID,19.4359,VALID,147,VALID,0.487847,
2005-01-08, 00:35:00,VALID,918.367,VALID,0,VALID,100,VALID,0.0169808,VALID,19.4297,VALID,157,VALID,0.799964,
2005-01-08, 00:36:00,VALID,918.337,VALID,0,VALID,100,VALID,0.0509425,VALID,19.4262,VALID,160,VALID,1.13098,
2005-01-08, 00:37:00,VALID,918.326,VALID,0,VALID,100,VALID,0.0849042,VALID,19.4259,VALID,175,VALID,0.625,
2005-01-08, 00:38:00,VALID,918.319,VALID,0,VALID,100,VALID,0.0509425,VALID,19.4232,VALID,174,VALID,0.43388,
2005-01-08, 00:39:00,VALID,918.307,VALID,0,VALID,100,VALID,0.0679233,VALID,19.4165,VALID,151,VALID,0.619531,
2005-01-08, 00:40:00,VALID,918.304,VALID,0,VALID,100,VALID,0.0679233,VALID,19.4133,VALID,158,VALID,1.00476,
2005-01-08, 00:41:00,VALID,918.316,VALID,0,VALID,100,VALID,0.0849042,VALID,19.4167,VALID,167,VALID,0.768293,
2005-01-08, 00:42:00,VALID,918.301,VALID,0,VALID,100,VALID,0.0679233,VALID,19.4098,VALID,142,VALID,0.992374,
2005-01-08, 00:43:00,VALID,918.293,VALID,0,VALID,100,VALID,0.0679233,VALID,19.4004,VALID,153,VALID,1.18559,
2005-01-08, 00:44:00,VALID,918.28,VALID,0,VALID,100,VALID,0.0339617,VALID,19.3773,VALID,149,VALID,1.21445,
2005-01-08, 00:45:00,VALID,918.266,VALID,0,VALID,100,VALID,0.0339617,VALID,19.3974,VALID,156,VALID,0.825462,
2005-01-08, 00:46:00,VALID,918.251,VALID,0,VALID,100,VALID,0.0339617,VALID,19.3877,VALID,144,VALID,1.43064,
2005-01-08, 00:47:00,VALID,918.233,VALID,0,VALID,100,VALID,0.0679233,VALID,19.4011,VALID,152,VALID,1.32244,
2005-01-08, 00:48:00,VALID,918.236,VALID,0,VALID,100,VALID,0.0679233,VALID,19.4073,VALID,150,VALID,1.41368,
2005-01-08, 00:49:00,VALID,918.235,VALID,0,VALID,100,VALID,0.0339617,VALID,19.4073,VALID,151,VALID,1.00124,
2005-01-08, 00:50:00,VALID,918.23,VALID,0,VALID,100,VALID,0.0509425,VALID,19.4073,VALID,148,VALID,1.36348,
2005-01-08, 00:51:00,VALID,918.214,VALID,0,VALID,100,VALID,0.0509425,VALID,19.3969,VALID,171,VALID,1.01289,
2005-01-08, 00:52:00,VALID,918.228,VALID,0,VALID,100,VALID,0.101885,VALID,19.3939,VALID,154,VALID,0.931332,
2005-01-08, 00:53:00,VALID,918.204,VALID,0,VALID,100,VALID,0.0679233,VALID,19.4036,VALID,156,VALID,1.2766,
2005-01-08, 00:54:00,VALID,918.199,VALID,0,VALID,100,VALID,0.0679233,VALID,19.3909,VALID,162,VALID,0.914063,
2005-01-08, 00:55:00,VALID,918.189,VALID,0,VALID,100,VALID,0.0849042,VALID,19.3807,VALID,150,VALID,1.37091,
2005-01-08, 00:56:00,VALID,918.171,VALID,0,VALID,100,VALID,0.0679233,VALID,19.3941,VALID,152,VALID,1.04836,
2005-01-08, 00:57:00,VALID,918.177,VALID,0,VALID,100,VALID,0.0679233,VALID,19.3777,VALID,137,VALID,1.12072,
2005-01-08, 00:58:00,VALID,918.153,VALID,0,VALID,100,VALID,0.0849042,VALID,19.3743,VALID,155,VALID,0.987827,
2005-01-08, 00:59:00,VALID,918.16,VALID,0,VALID,100,VALID,0.101885,VALID,19.3618,VALID,156,VALID,1.16206,
2005-01-08, 01:00:00,VALID,918.157,VALID,0,VALID,100,VALID,0.0679233,VALID,19.3877,VALID,144,VALID,1.08708,
2005-01-08, 01:01:00,VALID,918.137,VALID,0,VALID,100,VALID,0.0849042,VALID,19.3835,VALID,141,VALID,1.30088,
2005-01-08, 01:02:00,VALID,918.118,VALID,0,VALID,100,VALID,0.0339617,VALID,19.3907,VALID,144,VALID,1.20082,
2005-01-08, 01:03:00,VALID,918.119,VALID,0,VALID,100,VALID,0.118866,VALID,19.3872,VALID,137,VALID,1.20694,
2005-01-08, 01:04:00,VALID,918.111,VALID,0,VALID,100,VALID,0,VALID,19.4013,VALID,138,VALID,1.09475,
2005-01-08, 01:05:00,VALID,918.111,VALID,0,VALID,100,VALID,-0.0169808,VALID,19.4048,VALID,143,VALID,1.3157,
2005-01-08, 01:06:00,VALID,918.114,VALID,0,VALID,100,VALID,-0.0679233,VALID,19.3919,VALID,138,VALID,1.80541,
2005-01-08, 01:07:00,VALID,918.097,VALID,0,VALID,99.9939,VALID,-0.0339617,VALID,19.4115,VALID,138,VALID,1.33498,
2005-01-08, 01:08:00,VALID,918.091,VALID,0,VALID,99.8426,VALID,-0.0339617,VALID,19.4212,VALID,122,VALID,1.30526,
2005-01-08, 01:09:00,VALID,918.075,VALID,0,VALID,99.6569,VALID,-0.0169808,VALID,19.4274,VALID,137,VALID,1.24336,
2005-01-08, 01:10:00,VALID,918.06,VALID,0,VALID,99.5348,VALID,-0.0679233,VALID,19.444,VALID,125,VALID,1.00636,
2005-01-08, 01:11:00,VALID,918.04,VALID,0,VALID,99.4891,VALID,0,VALID,19.4503,VALID,137,VALID,0.873698,
2005-01-08, 01:12:00,VALID,918.018,VALID,0,VALID,99.4369,VALID,-0.0169808,VALID,19.4498,VALID,133,VALID,0.95476,
2005-01-08, 01:13:00,VALID,918.013,VALID,0,VALID,99.3505,VALID,-0.0339617,VALID,19.4473,VALID,134,VALID,1.30265,
2005-01-08, 01:14:00,VALID,917.988,VALID,0,VALID,99.2729,VALID,-0.0509425,VALID,19.454,VALID,130,VALID,1.08594,
2005-01-08, 01:15:00,VALID,917.97,VALID,0,VALID,99.2246,VALID,-0.0339617,VALID,19.4602,VALID,119,VALID,1.2113,
2005-01-08, 01:16:00,VALID,917.956,VALID,0,VALID,99.1979,VALID,0,VALID,19.4602,VALID,137,VALID,1.18941,
2005-01-08, 01:17:00,VALID,917.942,VALID,0,VALID,99.133,VALID,-0.0509425,VALID,19.4763,VALID,151,VALID,1.1774,
2005-01-08, 01:18:00,VALID,917.926,VALID,0,VALID,99.1076,VALID,-0.0339617,VALID,19.4664,VALID,157,VALID,1.01509,
2005-01-08, 01:19:00,VALID,917.904,VALID,0,VALID,99.1419,VALID,0.0509425,VALID,19.4684,VALID,160,VALID,0.826126,
2005-01-08, 01:20:00,VALID,917.891,VALID,0,VALID,99.2017,VALID,0.0339617,VALID,19.4719,VALID,163,VALID,0.824777,
2005-01-08, 01:21:00,VALID,917.856,VALID,0,VALID,99.1902,VALID,0.0509425,VALID,19.4615,VALID,164,VALID,0.893895,
2005-01-08, 01:22:00,VALID,917.837,VALID,0,VALID,99.1801,VALID,0.0339617,VALID,19.4585,VALID,120,VALID,0.977865,
2005-01-08, 01:23:00,VALID,917.806,VALID,0,VALID,99.0783,VALID,0.0339617,VALID,19.4548,VALID,101,VALID,0.744496,
2005-01-08, 01:24:00,VALID,917.802,VALID,0,VALID,99.0046,VALID,0.0339617,VALID,19.4587,VALID,119,VALID,0.6625,
2005-01-08, 01:25:00,VALID,917.781,VALID,0,VALID,98.9461,VALID,0.0169808,VALID,19.449,VALID,137,VALID,1.01544,
2005-01-08, 01:26:00,VALID,917.761,VALID,0,VALID,98.9156,VALID,0.0679233,VALID,19.4384,VALID,142,VALID,0.146802,
2005-01-08, 01:27:00,VALID,917.753,VALID,0,VALID,98.8876,VALID,0.0509425,VALID,19.4617,VALID,120,VALID,0.531641,
2005-01-08, 01:28:00,VALID,917.724,VALID,0,VALID,98.7757,VALID,0.0339617,VALID,19.4652,VALID,146,VALID,0.658984,
2005-01-08, 01:29:00,VALID,917.721,VALID,0,VALID,98.721,VALID,0.0679233,VALID,19.4746,VALID,140,VALID,0.184304,
2005-01-08, 01:30:00,VALID,917.703,VALID,0,VALID,98.7223,VALID,0.0679233,VALID,19.4813,VALID,142,VALID,0.377907,
2005-01-08, 01:31:00,VALID,917.702,VALID,0,VALID,98.6918,VALID,0.0509425,VALID,19.4781,VALID,148,VALID,0.832919,
2005-01-08, 01:32:00,VALID,917.699,VALID,0,VALID,98.618,VALID,0.0679233,VALID,19.4811,VALID,131,VALID,0.798473,
2005-01-08, 01:33:00,VALID,917.688,VALID,0,VALID,98.6765,VALID,0.0339617,VALID,19.488,VALID,155,VALID,0.666295,
2005-01-08, 01:34:00,VALID,917.682,VALID,0,VALID,98.6244,VALID,0,VALID,19.4888,VALID,126,VALID,1.1627,
2005-01-08, 01:35:00,VALID,917.68,VALID,0,VALID,98.585,VALID,0,VALID,19.4649,VALID,122,VALID,1.05202,
2005-01-08, 01:36:00,VALID,917.665,VALID,0,VALID,98.5735,VALID,0,VALID,19.4654,VALID,108,VALID,1.51435,
2005-01-08, 01:37:00,VALID,917.667,VALID,0,VALID,98.4756,VALID,0,VALID,19.4851,VALID,103,VALID,1.24257,
2005-01-08, 01:38:00,VALID,917.653,VALID,0,VALID,98.4044,VALID,0,VALID,19.4947,VALID,71,VALID,0.86471,
2005-01-08, 01:39:00,VALID,917.661,VALID,0,VALID,98.3726,VALID,0,VALID,19.4913,VALID,104,VALID,0.667882,
2005-01-08, 01:40:00,VALID,917.652,VALID,0,VALID,98.3764,VALID,0,VALID,19.4846,VALID,111,VALID,0.782366,
2005-01-08, 01:41:00,VALID,917.657,VALID,0,VALID,98.4146,VALID,0,VALID,19.4751,VALID,95,VALID,0.854611,
2005-01-08, 01:42:00,VALID,917.643,VALID,0,VALID,98.412,VALID,0,VALID,19.4786,VALID,110,VALID,0.790305,
2005-01-08, 01:43:00,VALID,917.638,VALID,0,VALID,98.44,VALID,0,VALID,19.4627,VALID,91,VALID,0.699591,
2005-01-08, 01:44:00,VALID,917.637,VALID,0,VALID,98.5341,VALID,-0.0169808,VALID,19.4326,VALID,66,VALID,0.594429,
2005-01-08, 01:45:00,VALID,917.618,VALID,0,VALID,98.6256,VALID,0,VALID,19.4239,VALID,87,VALID,0.550409,
2005-01-08, 01:46:00,VALID,917.615,VALID,0,VALID,98.7197,VALID,0,VALID,19.4006,VALID,96,VALID,0.458939,
2005-01-08, 01:47:00,VALID,917.594,VALID,0,VALID,98.7566,VALID,0,VALID,19.3782,VALID,60,VALID,0.607986,
2005-01-08, 01:48:00,VALID,917.599,VALID,0,VALID,98.8634,VALID,-0.0169808,VALID,19.3723,VALID,28,VALID,0.899182,
2005-01-08, 01:49:00,VALID,917.614,VALID,0,VALID,98.9296,VALID,-0.0169808,VALID,19.3524,VALID,43,VALID,0.615189,
2005-01-08, 01:50:00,VALID,917.608,VALID,0,VALID,98.9995,VALID,0,VALID,19.3457,VALID,40,VALID,0.436914,
2005-01-08, 01:51:00,VALID,917.611,VALID,0,VALID,99.0135,VALID,0,VALID,19.3462,VALID,20,VALID,0.480755,
2005-01-08, 01:52:00,VALID,917.597,VALID,0,VALID,99.0644,VALID,0,VALID,19.3335,VALID,19,VALID,0.606585,
2005-01-08, 01:53:00,VALID,917.598,VALID,0,VALID,99.1127,VALID,0,VALID,19.3233,VALID,19,VALID,0.423971,
2005-01-08, 01:54:00,VALID,917.586,VALID,0,VALID,99.1114,VALID,0,VALID,19.3069,VALID,19,VALID,0.136265,
2005-01-08, 01:55:00,VALID,917.575,VALID,0,VALID,99.1228,VALID,0,VALID,19.2843,VALID,19,VALID,0.027439,
2005-01-08, 01:56:00,VALID,917.559,VALID,0,VALID,99.1877,VALID,0,VALID,19.2784,VALID,19,VALID,0,
2005-01-08, 01:57:00,VALID,917.545,VALID,0,VALID,99.2411,VALID,0,VALID,19.2684,VALID,19,VALID,0.208939,
2005-01-08, 01:58:00,VALID,917.524,VALID,0,VALID,99.2665,VALID,0,VALID,19.2396,VALID,19,VALID,0.335751,
2005-01-08, 01:59:00,VALID,917.508,VALID,0,VALID,99.3594,VALID,-0.0169808,VALID,19.2237,VALID,39,VALID,0.523819,
2005-01-08, 02:00:00,VALID,917.49,VALID,0,VALID,99.4776,VALID,-0.0339617,VALID,19.2078,VALID,49,VALID,0.576349,
2005-01-08, 02:01:00,VALID,917.482,VALID,0,VALID,99.5437,VALID,-0.0339617,VALID,19.1909,VALID,55,VALID,0.560976,
2005-01-08, 02:02:00,VALID,917.472,VALID,0,VALID,99.5679,VALID,-0.0169808,VALID,19.1688,VALID,61,VALID,0.642531,
2005-01-08, 02:03:00,VALID,917.459,VALID,0,VALID,99.6035,VALID,-0.0339617,VALID,19.143,VALID,61,VALID,0.805432,
2005-01-08, 02:04:00,VALID,917.445,VALID,0,VALID,99.6735,VALID,-0.101885,VALID,19.1215,VALID,61,VALID,0.742374,
2005-01-08, 02:05:00,VALID,917.425,VALID,0,VALID,99.7459,VALID,-0.118866,VALID,19.1054,VALID,61,VALID,0.809304,
2005-01-08, 02:06:00,VALID,917.403,VALID,0,VALID,99.8299,VALID,-0.101885,VALID,19.0833,VALID,61,VALID,0.763207,
2005-01-08, 02:07:00,VALID,917.388,VALID,0,VALID,99.9227,VALID,-0.101885,VALID,19.0768,VALID,61,VALID,0.771391,
2005-01-08, 02:08:00,VALID,917.366,VALID,0,VALID,99.984,VALID,-0.101885,VALID,19.047,VALID,62,VALID,0.669271,
2005-01-08, 02:09:00,VALID,917.341,VALID,0,VALID,99.9479,VALID,-0.101885,VALID,19.0182,VALID,68,VALID,0.620808,
2005-01-08, 02:10:00,VALID,917.305,VALID,0,VALID,99.999,VALID,-0.0849042,VALID,19.002,VALID,72,VALID,0.761814,
2005-01-08, 02:11:00,VALID,917.282,VALID,0,VALID,100,VALID,-0.101885,VALID,18.9794,VALID,83,VALID,0.786644,
2005-01-08, 02:12:00,VALID,917.246,VALID,0,VALID,100,VALID,-0.101885,VALID,18.9506,VALID,81,VALID,0.763207,
2005-01-08, 02:13:00,VALID,917.233,VALID,0,VALID,100,VALID,-0.0849042,VALID,18.9186,VALID,63,VALID,0.754001,
2005-01-08, 02:14:00,VALID,917.229,VALID,0,VALID,100,VALID,-0.0849042,VALID,18.8629,VALID,62,VALID,0.80599,
2005-01-08, 02:15:00,VALID,917.211,VALID,0,VALID,100,VALID,-0.0849042,VALID,18.8664,VALID,81,VALID,0.702035,
2005-01-08, 02:16:00,VALID,917.218,VALID,0,VALID,100,VALID,-0.101885,VALID,18.8731,VALID,80,VALID,0.585574,
2005-01-08, 02:17:00,VALID,917.216,VALID,0,VALID,100,VALID,-0.101885,VALID,18.8533,VALID,73,VALID,0.667773,
2005-01-08, 02:18:00,VALID,917.212,VALID,0,VALID,100,VALID,-0.101885,VALID,18.8343,VALID,51,VALID,0.888719,
2005-01-08, 02:19:00,VALID,917.213,VALID,0,VALID,100,VALID,0,VALID,18.8041,VALID,41,VALID,1.20022,
2005-01-08, 02:20:00,VALID,917.231,VALID,0,VALID,100,VALID,0.0169808,VALID,18.7944,VALID,35,VALID,1.25226,
2005-01-08, 02:21:00,VALID,917.23,VALID,0,VALID,100,VALID,0.0169808,VALID,18.7681,VALID,33,VALID,1.07014,
2005-01-08, 02:22:00,VALID,917.237,VALID,0,VALID,100,VALID,0.0169808,VALID,18.749,VALID,37,VALID,1.11228,
2005-01-08, 02:23:00,VALID,917.22,VALID,0,VALID,100,VALID,0,VALID,18.7554,VALID,47,VALID,1.14153,
2005-01-08, 02:24:00,VALID,917.216,VALID,0,VALID,100,VALID,0.0339617,VALID,18.7942,VALID,47,VALID,1.21185,
2005-01-08, 02:25:00,VALID,917.203,VALID,0,VALID,100,VALID,0.0169808,VALID,18.817,VALID,36,VALID,1.05888,
2005-01-08, 02:26:00,VALID,917.17,VALID,0,VALID,100,VALID,0,VALID,18.8073,VALID,45,VALID,0.735328,
2005-01-08, 02:27:00,VALID,917.154,VALID,0,VALID,100,VALID,0.0169808,VALID,18.8041,VALID,46,VALID,0.997396,
2005-01-08, 02:28:00,VALID,917.15,VALID,0,VALID,100,VALID,0.0169808,VALID,18.8009,VALID,53,VALID,0.757068,
2005-01-08, 02:29:00,VALID,917.123,VALID,0,VALID,100,VALID,0,VALID,18.7976,VALID,53,VALID,0.651811,
2005-01-08, 02:30:00,VALID,917.114,VALID,0,VALID,100,VALID,0,VALID,18.7979,VALID,54,VALID,0.672805,
2005-01-08, 02:31:00,VALID,917.11,VALID,0,VALID,100,VALID,0.0169808,VALID,18.7974,VALID,54,VALID,0.63151,
2005-01-08, 02:32:00,VALID,917.099,VALID,0,VALID,100,VALID,-0.0339617,VALID,18.7976,VALID,54,VALID,0.678646,
2005-01-08, 02:33:00,VALID,917.105,VALID,0,VALID,100,VALID,0,VALID,18.8011,VALID,54,VALID,0.532366,
2005-01-08, 02:34:00,VALID,917.096,VALID,0,VALID,100,VALID,0,VALID,18.8078,VALID,54,VALID,0.438244,
2005-01-08, 02:35:00,VALID,917.107,VALID,0,VALID,100,VALID,0,VALID,18.7813,VALID,59,VALID,0.515262,
2005-01-08, 02:36:00,VALID,917.1,VALID,0,VALID,100,VALID,0,VALID,18.7877,VALID,66,VALID,0.442835,
2005-01-08, 02:37:00,VALID,917.112,VALID,0,VALID,100,VALID,0.0169808,VALID,18.7882,VALID,73,VALID,0.553622,
2005-01-08, 02:38:00,VALID,917.101,VALID,0,VALID,100,VALID,0,VALID,18.7653,VALID,78,VALID,0.357422,
2005-01-08, 02:39:00,VALID,917.097,VALID,0,VALID,100,VALID,0.0169808,VALID,18.7395,VALID,78,VALID,0.542783,
2005-01-08, 02:40:00,VALID,917.083,VALID,0,VALID,100,VALID,0,VALID,18.7139,VALID,78,VALID,0.605299,
2005-01-08, 02:41:00,VALID,917.06,VALID,0,VALID,100,VALID,0,VALID,18.6978,VALID,78,VALID,0.711496,
2005-01-08, 02:42:01,VALID,917.044,VALID,0,VALID,100,VALID,0,VALID,18.6943,VALID,86,VALID,0.855824,
2005-01-08, 02:43:00,VALID,917.019,VALID,0,VALID,100,VALID,-0.0169808,VALID,18.7042,VALID,100,VALID,0.994855,
2005-01-08, 02:44:00,VALID,917.006,VALID,0,VALID,100,VALID,0,VALID,18.707,VALID,110,VALID,1.03634,
2005-01-08, 02:45:00,VALID,917.002,VALID,0,VALID,100,VALID,0,VALID,18.7005,VALID,112,VALID,0.636905,
2005-01-08, 02:46:00,VALID,916.992,VALID,0,VALID,100,VALID,0,VALID,18.6685,VALID,112,VALID,0.422238,
2005-01-08, 02:47:00,VALID,916.997,VALID,0,VALID,100,VALID,0,VALID,18.6364,VALID,112,VALID,0.380269,
2005-01-08, 02:48:00,VALID,917.002,VALID,0,VALID,100,VALID,0,VALID,18.6101,VALID,112,VALID,0.242746,
2005-01-08, 02:49:00,VALID,917.005,VALID,0,VALID,100,VALID,-0.0849042,VALID,18.579,VALID,112,VALID,0.370094,
2005-01-08, 02:50:00,VALID,917.004,VALID,0,VALID,100,VALID,-0.0849042,VALID,18.5504,VALID,110,VALID,0.506785,
2005-01-08, 02:51:00,VALID,917.006,VALID,0,VALID,100,VALID,-0.0849042,VALID,18.5474,VALID,96,VALID,0.523438,
2005-01-08, 02:52:00,VALID,916.989,VALID,0,VALID,100,VALID,-0.101885,VALID,18.5472,VALID,85,VALID,0.517578,
2005-01-08, 02:53:00,VALID,916.982,VALID,0,VALID,100,VALID,-0.101885,VALID,18.5668,VALID,93,VALID,0.513477,
2005-01-08, 02:54:00,VALID,916.967,VALID,0,VALID,100,VALID,-0.101885,VALID,18.5829,VALID,91,VALID,0.615412,
2005-01-08, 02:55:00,VALID,916.944,VALID,0,VALID,100,VALID,-0.101885,VALID,18.5633,VALID,74,VALID,0.452604,
2005-01-08, 02:56:00,VALID,916.941,VALID,0,VALID,100,VALID,-0.101885,VALID,18.5439,VALID,48,VALID,0.57777,
2005-01-08, 02:57:00,VALID,916.923,VALID,0,VALID,100,VALID,-0.0849042,VALID,18.4918,VALID,45,VALID,0.624818,
2005-01-08, 02:58:00,VALID,916.917,VALID,0,VALID,100,VALID,-0.0509425,VALID,18.486,VALID,26,VALID,0.873728,
2005-01-08, 02:59:00,VALID,916.901,VALID,0,VALID,100,VALID,-0.101885,VALID,18.5086,VALID,24,VALID,1.00327,
2005-01-08, 03:00:00,VALID,916.896,VALID,0,VALID,100,VALID,-0.0849042,VALID,18.5278,VALID,34,VALID,0.84517,
2005-01-08, 03:01:00,VALID,916.881,VALID,0,VALID,100,VALID,-0.0849042,VALID,18.5246,VALID,34,VALID,0.426669,
2005-01-08, 03:02:00,VALID,916.867,VALID,0,VALID,100,VALID,-0.101885,VALID,18.4764,VALID,49,VALID,0.599219,
2005-01-08, 03:03:01,VALID,916.87,VALID,0,VALID,100,VALID,-0.0849042,VALID,18.5022,VALID,52,VALID,0.629687,
2005-01-08, 03:04:00,VALID,916.863,VALID,0,VALID,100,VALID,0,VALID,18.5465,VALID,75,VALID,0.690163,
2005-01-08, 03:05:00,VALID,916.852,VALID,0,VALID,100,VALID,0,VALID,18.5788,VALID,78,VALID,0.543056,
2005-01-08, 03:06:00,VALID,916.857,VALID,0,VALID,100,VALID,0.0169808,VALID,18.5882,VALID,79,VALID,0.639672,
2005-01-08, 03:07:01,VALID,916.849,VALID,0,VALID,100,VALID,0,VALID,18.5718,VALID,90,VALID,0.821948,
2005-01-08, 03:08:01,VALID,916.847,VALID,0,VALID,100,VALID,0,VALID,18.5495,VALID,91,VALID,0.820499,
2005-01-08, 03:09:00,VALID,916.836,VALID,0,VALID,100,VALID,0.0169808,VALID,18.5398,VALID,88,VALID,0.995028,
2005-01-08, 03:10:00,VALID,916.83,VALID,0,VALID,100,VALID,-0.0169808,VALID,18.5234,VALID,90,VALID,1.00133,
2005-01-08, 03:11:01,VALID,916.836,VALID,0,VALID,100,VALID,0,VALID,18.5301,VALID,95,VALID,1.00019,
2005-01-08, 03:12:01,VALID,916.824,VALID,0,VALID,100,VALID,0.0169808,VALID,18.5303,VALID,86,VALID,0.861421,
2005-01-08, 03:13:00,VALID,916.824,VALID,0,VALID,100,VALID,0,VALID,18.4909,VALID,78,VALID,0.701308,
2005-01-08, 03:14:00,VALID,916.828,VALID,0,VALID,100,VALID,0.0339617,VALID,18.4685,VALID,76,VALID,0.521949,
2005-01-08, 03:15:00,VALID,916.822,VALID,0,VALID,100,VALID,0,VALID,18.4489,VALID,75,VALID,0.154345,
2005-01-08, 03:16:01,VALID,916.819,VALID,0,VALID,100,VALID,0.0169808,VALID,18.4459,VALID,75,VALID,0.280506,
2005-01-08, 03:17:00,VALID,916.814,VALID,0,VALID,100,VALID,0,VALID,18.4332,VALID,75,VALID,0.464334,
2005-01-08, 03:18:00,VALID,916.796,VALID,0,VALID,100,VALID,0,VALID,18.4457,VALID,85,VALID,0.647135,
2005-01-08, 03:19:00,VALID,916.783,VALID,0,VALID,100,VALID,-0.0339617,VALID,18.4554,VALID,99,VALID,0.750558,
2005-01-08, 03:20:01,VALID,916.75,VALID,0,VALID,100,VALID,0,VALID,18.5013,VALID,99,VALID,0.840104,
2005-01-08, 03:21:00,VALID,916.73,VALID,0,VALID,100,VALID,-0.0169808,VALID,18.5107,VALID,99,VALID,0.921113,
2005-01-08, 03:22:00,VALID,916.711,VALID,0,VALID,100,VALID,-0.0169808,VALID,18.5497,VALID,100,VALID,0.946456,
2005-01-08, 03:23:01,VALID,916.698,VALID,0,VALID,100,VALID,-0.0339617,VALID,18.579,VALID,100,VALID,0.881669,
2005-01-08, 03:24:00,VALID,916.681,VALID,0,VALID,100,VALID,-0.0339617,VALID,18.5658,VALID,100,VALID,0.811047,
2005-01-08, 03:25:00,VALID,916.658,VALID,0,VALID,100,VALID,0,VALID,18.5665,VALID,92,VALID,0.634115,
2005-01-08, 03:26:00,VALID,916.639,VALID,0,VALID,100,VALID,-0.0339617,VALID,18.5402,VALID,97,VALID,0.788281,
2005-01-08, 03:27:01,VALID,916.621,VALID,0,VALID,100,VALID,0,VALID,18.5236,VALID,101,VALID,0.614236,
2005-01-08, 03:28:00,VALID,916.608,VALID,0,VALID,100,VALID,-0.0339617,VALID,18.5114,VALID,100,VALID,0.574491,
2005-01-08, 03:29:00,VALID,916.601,VALID,0,VALID,100,VALID,-0.0509425,VALID,18.4879,VALID,98,VALID,0.59304,
2005-01-08, 03:30:00,VALID,916.581,VALID,0,VALID,100,VALID,-0.0169808,VALID,18.4784,VALID,94,VALID,0.451172,
2005-01-08, 03:31:00,VALID,916.569,VALID,0,VALID,100,VALID,-0.0169808,VALID,18.4526,VALID,95,VALID,0.547805,
2005-01-08, 03:32:00,VALID,916.575,VALID,0,VALID,100,VALID,-0.0509425,VALID,18.463,VALID,110,VALID,0.527166,
2005-01-08, 03:33:01,VALID,916.557,VALID,0,VALID,100,VALID,-0.0339617,VALID,18.4501,VALID,110,VALID,0.596657,
2005-01-08, 03:34:00,VALID,916.546,VALID,0,VALID,100,VALID,-0.0509425,VALID,18.4528,VALID,110,VALID,0.480273,
2005-01-08, 03:35:00,VALID,916.536,VALID,0,VALID,100,VALID,-0.0509425,VALID,18.4404,VALID,109,VALID,0.559261,
2005-01-08, 03:36:01,VALID,916.527,VALID,0,VALID,100,VALID,-0.0679233,VALID,18.4503,VALID,109,VALID,0.621595,
2005-01-08, 03:37:00,VALID,916.526,VALID,0,VALID,100,VALID,-0.0509425,VALID,18.4404,VALID,109,VALID,0.656808,
2005-01-08, 03:38:00,VALID,916.515,VALID,0,VALID,100,VALID,-0.0169808,VALID,18.4208,VALID,109,VALID,0.649182,